EW8555 Weather Reports


time (UTC)temp
C
wind
direction
speed
KPH
gust
KPH
rain 1hr
cm
rain 24hr
cm
rain mn
cm
humidity
%
barometer
mb
20260905083010 18 288 11.3 22.5 0.00 0.69 0.00 67 1014.1
20260905081507 18 267 4.8 29.0 0.00 0.69 0.00 69 1013.9
20260905080003 17 188 6.4 20.9 0.00 0.69 0.00 72 1013.6
20260905074502 17 334 11.3 30.6 0.00 0.69 0.00 73 1013.6
20260905073103 17 101 6.4 27.4 0.00 0.69 0.00 74 1013.5
20260905071558 17 250 8.0 20.9 0.00 0.69 0.00 75 1013.3
20260905070058 17 304 4.8 30.6 0.00 0.69 0.00 77 1013.2
20260905064609 16 220 6.4 17.7 0.00 0.69 0.00 80 1013.0
20260905063050 16 259 12.9 22.5 0.00 0.69 0.00 81 1013.2
20260905061547 15 243 3.2 16.1 0.00 0.69 0.00 82 1012.9
20260905060045 15 228 3.2 20.9 0.00 0.69 0.00 84 1012.7
20260905054549 15 246 9.7 24.1 0.00 0.69 0.00 84 1012.7
20260905053042 15 245 9.7 19.3 0.00 0.69 0.00 85 1012.6
20260905051545 14 217 4.8 17.7 0.00 0.69 0.00 85 1012.4
20260905050040 14 246 1.6 20.9 0.00 0.69 0.00 86 1012.2
20260905044538 14 225 4.8 17.7 0.00 0.69 0.00 86 1012.2
20260905043035 14 284 3.2 17.7 0.00 0.69 0.00 85 1012.0
20260905041532 14 263 1.6 16.1 0.00 0.69 0.00 85 1011.9
20260905040034 14 284 8.0 19.3 0.00 0.69 0.00 85 1011.7
20260905034531 14 249 3.2 11.3 0.00 0.69 0.00 85 1011.7
20260905033028 14 284 3.2 19.3 0.00 0.69 0.00 86 1011.4
20260905031523 14 232 1.6 19.3 0.00 0.69 0.00 86 1011.4
20260905030021 14 237 6.4 16.1 0.00 0.69 0.00 86 1011.1
20260905024518 15 293 4.8 17.7 0.00 0.69 0.00 86 1010.9
20260905023016 15 240 4.8 17.7 0.00 0.69 0.00 86 1010.9
20260905021532 15 274 0.0 12.9 0.00 0.69 0.00 85 1010.9
20260905020016 15 261 1.6 12.9 0.00 0.69 0.00 85 1010.6
20260905014509 15 265 3.2 14.5 0.00 0.69 0.00 85 1010.4
20260905013007 15 292 6.4 19.3 0.00 0.69 0.00 85 1010.5
20260905011506 16 234 6.4 17.7 0.00 0.69 0.00 85 1010.3
20260905010005 16 235 4.8 16.1 0.00 0.69 0.00 85 1010.3
20260905004502 16 254 3.2 14.5 0.00 0.69 0.00 84 1010.2
20260905003004 16 236 4.8 14.5 0.00 0.69 0.00 85 1010.1
20260905001608 16 230 4.8 16.1 0.00 0.69 0.00 85 1010.1
20260904234605 16 240 3.2 16.1 0.00 0.69 0.00 86 1009.8
20260904233056 16 213 3.2 16.1 0.00 0.69 0.00 86 1009.8
20260904231553 16 209 1.6 22.5 0.00 0.69 0.00 86 1009.5
20260904230051 16 252 6.4 22.5 0.00 0.69 0.00 87 1009.4
20260904224549 16 286 6.4 20.9 0.00 0.69 0.00 88 1009.5
20260904223051 16 186 8.0 22.5 0.00 0.69 0.00 88 1009.3
20260904221551 16 249 3.2 25.7 0.00 0.69 0.00 89 1009.3
20260904220056 16 235 6.4 20.9 0.00 0.69 0.00 90 1008.7
20260904214542 16 261 3.2 19.3 0.00 0.69 0.69 91 1008.4
20260904213039 16 248 3.2 17.7 0.00 0.69 0.69 91 1008.1
20260904211550 16 327 4.8 17.7 0.00 0.69 0.69 92 1008.0
20260904210045 16 300 4.8 11.3 0.00 0.69 0.69 92 1007.7
20260904204537 16 232 3.2 16.1 0.00 0.69 0.69 93 1007.7
20260904203037 16 202 3.2 16.1 0.00 0.69 0.69 93 1007.7
20260904201539 16 277 3.2 16.1 0.00 0.69 0.69 93 1007.5
20260904200040 16 252 6.4 17.7 0.00 0.69 0.69 93 1007.3
20260904194620 16 232 4.8 19.3 0.00 0.69 0.69 93 1007.2
20260904193040 16 198 1.6 16.1 0.03 0.69 0.69 93 1006.8
20260904191535 16 286 3.2 14.5 0.05 0.69 0.69 93 1006.7
20260904190034 16 193 6.4 19.3 0.13 0.69 0.69 93 1006.7
20260904184533 16 229 4.8 19.3 0.23 0.69 0.69 92 1006.7
20260904183032 15 215 4.8 22.5 0.41 0.66 0.66 92 1006.6
20260904181530 15 286 4.8 17.7 0.46 0.64 0.64 91 1006.6
20260904180028 16 277 3.2 19.3 0.38 0.56 0.56 90 1006.4
20260904174526 16 313 4.8 16.1 0.28 0.46 0.46 87 1006.7
20260904173030 17 235 9.7 27.4 0.08 0.25 0.25 81 1006.7
20260904171526 18 293 9.7 29.0 0.00 0.18 0.18 76 1006.8
20260904170019 18 272 8.0 22.5 0.00 0.18 0.18 77 1006.3
20260904164519 18 302 6.4 22.5 0.00 0.18 0.18 79 1005.7
20260904163018 18 261 11.3 30.6 0.00 0.18 0.18 77 1006.0
20260904161518 18 324 9.7 37.0 0.00 0.18 0.18 76 1006.1
20260904160018 18 259 11.3 29.0 0.18 0.18 0.18 77 1006.0
20260904154516 18 312 12.9 30.6 0.18 0.18 0.18 80 1005.5
20260904153022 18 290 14.5 40.2 0.18 0.18 0.18 84 1005.5
20260904151527 18 315 25.7 57.9 0.18 0.18 0.18 84 1005.4
20260904150013 25 287 25.7 54.7 0.00 0.00 0.00 61 1003.8
20260904144511 26 281 9.7 41.8 0.00 0.00 0.00 60 1002.7
20260904143008 26 205 16.1 43.5 0.00 0.00 0.00 61 1002.9
20260904141506 26 348 12.9 40.2 0.00 0.00 0.00 62 1003.2
20260904140001 25 236 17.7 43.5 0.00 0.00 0.00 63 1003.3
20260904134616 25 207 12.9 27.4 0.00 0.00 0.00 64 1003.5
20260904133111 25 254 12.9 48.3 0.00 0.00 0.00 65 1003.8
20260904131610 25 243 12.9 37.0 0.00 0.00 0.00 65 1004.1
20260904130053 25 194 4.8 51.5 0.00 0.00 0.00 65 1004.1
20260904124551 25 243 11.3 32.2 0.00 0.00 0.00 66 1004.3
20260904123050 25 230 12.9 32.2 0.00 0.00 0.00 66 1004.6
20260904121549 25 242 14.5 41.8 0.00 0.00 0.00 65 1004.8
20260904120047 25 252 9.7 37.0 0.00 0.00 0.00 65 1004.9
20260904114544 24 215 16.1 45.1 0.00 0.00 0.00 64 1005.1
20260904113043 24 205 14.5 41.8 0.00 0.00 0.00 64 1005.2
20260904111540 24 229 14.5 32.2 0.00 0.00 0.00 66 1005.7
20260904110036 23 291 17.7 37.0 0.00 0.00 0.00 66 1006.1
20260904104535 23 236 19.3 38.6 0.00 0.00 0.00 66 1006.2
20260904103033 23 301 11.3 32.2 0.00 0.00 0.00 67 1006.5
20260904101530 23 244 8.0 40.2 0.00 0.00 0.00 68 1006.8
20260904100030 23 232 12.9 33.8 0.00 0.00 0.00 70 1006.8
20260904094524 22 248 8.0 33.8 0.00 0.00 0.00 70 1007.1
20260904093024 22 205 17.7 40.2 0.00 0.00 0.00 71 1007.1
20260904091521 22 215 11.3 35.4 0.00 0.00 0.00 75 1007.2
20260904090018 22 200 9.7 29.0 0.00 0.00 0.00 73 1007.6
20260904084515 22 240 16.1 29.0 0.00 0.00 0.00 75 1008.0